{"data":{"norad_id":61893,"epoch":"2026-05-25T02:49:37.939008Z","epoch_age_seconds":75061,"freshness":"FRESH","line1":"1 61893U 24204V   26145.11780022 -.00000733  00000+0 -10554-4 0  9991","line2":"2 61893  53.1595 131.0459 0000977 105.2807 254.8304 15.34401632 86803","mean_motion":15.34401632,"eccentricity":9.77e-5,"inclination_deg":53.1595,"raan_deg":131.0459,"arg_perigee_deg":105.2807,"mean_anomaly_deg":254.8304,"bstar":-1.0554e-5,"rev_number":8680,"period_min":93.847658264222,"perigee_km":462.03003994592,"apogee_km":463.36673918104,"semimajor_km":6840.8353895635,"source":"CELESTRAK","updated_at":"2026-05-25T13:38:19.479491Z"}}